Location: Broletto
(44.6000°N, 10.5833°E)
Time: 07:32:29
(UTC+00:00)

Cosmos 1954 Rocket - Pass Details

Date: 18 April 2021
Orbit: 752 x 781 km, 74.0° (Epoch: 06 May)

Event Time Altitude Azimuth Distance (km) Brightness Sun altitude
Exits shadow 21:12:17 72° 19° (NNE) 794 4.0 -27.5°
Drops below altitude 10° 21:16:56 10° 21° (NNE) 2,285 6.8 -28.0°
Sets 21:19:18 0° 21° (NNE) 3,215 7.7 -28.2°
